Location: Astroquest
(35.1187°N, 89.7105°W)
Time: 09:38:05
(UTC-06:00)

N. Korean satellite - Visible Passes

Search period start: 21 November 2017 00:00
Search period end: 01 December 2017 00:00
Orbit: 460 x 514 km, 97.2° (Epoch: 20 November)

Date Brightness Start Highest point End Pass type
(mag) Time Alt. Az. Time Alt. Az. Time Alt. Az.
21 Nov 9.5 06:03:44 10° NE 06:06:47 24° E 06:09:51 10° SSE visible
21 Nov 6.6 18:09:34 10° S 18:13:01 75° W 18:16:35 10° NNW visible
22 Nov 10.2 05:41:43 10° ENE 05:43:11 12° E 05:44:39 10° ESE visible
22 Nov 6.7 17:46:14 10° SSE 17:49:35 47° ENE 17:53:01 10° N visible
23 Nov 7.7 17:23:26 10° SE 17:26:14 23° ENE 17:29:04 10° NNE visible
23 Nov 9.6 18:57:28 10° SW 18:59:42 16° W 19:01:56 10° NW visible
24 Nov 8.3 18:32:54 10° SSW 18:36:05 32° W 18:39:21 10° NNW visible
25 Nov 9.5 06:03:18 10° NE 06:06:23 24° E 06:09:26 10° SSE visible
25 Nov 6.7 18:09:04 10° S 18:12:33 75° WSW 18:16:09 10° NNW visible
26 Nov 10.2 05:41:17 10° ENE 05:42:45 12° E 05:44:12 10° ESE visible
26 Nov 6.7 17:45:43 10° SSE 17:49:07 47° ENE 17:52:35 10° N visible
27 Nov 7.7 17:22:55 10° SE 17:25:44 23° ENE 17:28:37 10° NNE visible
27 Nov 9.6 18:56:55 10° SW 18:59:12 16° W 19:01:31 10° NW visible
28 Nov 8.3 18:32:21 10° SSW 18:35:35 33° W 18:38:53 10° NNW visible
29 Nov 9.5 06:02:49 10° NE 06:05:54 23° E 06:08:56 10° SSE visible
29 Nov 6.7 18:08:30 10° S 18:12:02 76° W 18:15:40 10° NNW visible
30 Nov 10.2 05:40:49 10° ENE 05:42:15 12° E 05:43:40 10° ESE visible
30 Nov 6.7 17:45:09 10° SSE 17:48:34 47° ENE 17:52:05 10° N visible
